Date,TemperatureHighF,TemperatureAvgF,TemperatureLowF,DewpointHighF,DewpointAvgF,DewpointLowF,HumidityHigh,HumidityAvg,HumidityLow,PressureMaxIn,PressureMinIn,WindSpeedMaxMPH,WindSpeedAvgMPH,GustSpeedMaxMPH,PrecipitationSumIn
2013-1-1,31.0,20.7,14.0,13.0,6.0,1.0,70,54,36,30.28,30.10,9,5,11,0.00
2013-1-2,40.0,29.4,14.0,16.0,11.8,8.0,81,49,33,30.22,30.10,4,2,6,0.00
2013-1-3,37.0,26.7,15.0,24.0,16.1,8.0,81,65,41,30.31,30.10,9,3,10,0.00
2013-1-4,42.0,25.8,14.0,20.0,13.6,7.0,80,61,39,30.31,30.22,7,3,12,0.00
2013-1-5,39.0,31.2,18.0,34.0,24.5,13.0,98,77,50,30.22,29.98,6,2,8,0.00
2013-1-6,37.0,26.8,16.0,33.0,17.5,11.0,88,68,49,30.31,29.95,10,4,18,0.00
2013-1-7,47.0,30.3,15.0,27.0,20.3,11.0,91,69,39,30.31,30.10,8,3,9,0.00
2013-1-8,52.0,37.0,27.0,30.0,25.4,21.0,80,65,38,30.16,30.04,11,3,11,0.00
2013-1-9,53.0,39.3,25.0,31.0,26.1,19.0,86,61,34,30.49,30.04,9,3,10,0.00
2013-1-10,50.0,35.0,24.0,49.0,29.0,19.0,98,81,50,30.46,29.80,10,3,11,0.00
2013-1-11,62.0,52.3,48.0,53.0,49.3,47.0,98,91,68,29.83,29.68,9,4,15,0.00
2013-1-12,53.0,41.5,27.0,49.0,34.6,22.0,92,77,60,29.98,29.71,13,5,13,0.00
2013-1-13,27.0,20.4,14.0,26.0,13.8,6.0,96,75,62,30.25,29.89,9,5,10,0.00
2013-1-14,35.0,18.4,14.0,16.0,8.3,6.0,77,65,42,30.46,30.25,7,2,7,0.00
2013-1-15,36.0,21.3,14.0,17.0,12.0,8.0,87,69,45,30.43,30.10,6,1,6,0.00
2013-1-16,44.0,28.7,14.0,25.0,17.1,10.0,89,64,41,30.10,29.89,6,2,8,0.00
2013-1-17,37.0,30.3,20.0,31.0,18.0,11.0,95,62,40,30.43,30.04,11,4,13,0.00
2013-1-18,51.0,35.3,19.0,29.0,22.4,13.0,86,61,39,30.43,29.98,8,3,12,0.00
2013-1-19,59.0,44.7,32.0,34.0,28.2,17.0,64,53,37,30.04,29.80,15,4,15,0.00
2013-1-20,31.0,20.3,15.0,17.0,5.8,3.0,74,54,41,30.34,30.04,15,6,22,0.00
2013-1-21,17.0,14.3,14.0,6.0,1.0,-7.0,70,56,37,30.31,30.19,12,6,15,0.00
2013-1-22,21.0,15.8,14.0,-1.0,-4.4,-6.0,41,39,36,30.43,30.31,8,4,10,0.00
2013-1-23,35.0,21.5,14.0,13.0,3.7,-5.0,56,46,35,30.34,30.07,15,4,20,0.00
2013-1-24,27.0,19.0,14.0,7.0,1.2,-2.0,68,46,36,30.61,30.31,13,6,15,0.00
2013-1-25,43.0,28.5,21.0,17.0,10.8,3.0,69,48,34,30.31,30.01,9,4,12,0.00
2013-1-26,40.0,24.5,14.0,13.0,7.6,2.0,72,49,33,30.43,30.19,8,3,8,0.00
2013-1-27,44.0,32.9,26.0,42.0,25.4,12.0,98,76,52,30.34,29.89,10,6,12,0.00
2013-1-28,52.0,48.7,44.0,51.0,47.7,43.0,98,98,98,29.95,29.86,6,3,10,0.00
2013-1-29,54.0,51.8,49.0,53.0,50.8,48.0,98,98,98,29.53,29.41,2,0,2,0.00
2013-1-30,51.0,33.9,20.0,50.0,31.0,12.0,98,90,70,29.74,29.29,12,5,17,0.00
2013-1-31,21.0,16.1,14.0,12.0,3.4,0.0,72,57,51,30.25,29.74,13,6,20,0.00
2013-2-1,25.0,17.4,14.0,15.0,2.3,-3.0,78,51,40,30.43,30.16,10,4,16,0.00
2013-2-2,31.0,21.9,14.0,24.0,14.5,4.0,90,73,58,30.16,30.01,11,4,13,0.00
2013-2-3,36.0,24.1,17.0,23.0,14.2,10.0,98,68,40,30.10,29.95,11,3,16,0.00
2013-2-4,40.0,29.4,21.0,23.0,19.7,14.0,85,67,50,29.98,29.80,10,5,13,0.00
2013-2-5,46.0,30.9,18.0,29.0,23.8,15.0,93,76,48,30.07,29.83,10,3,10,0.00
2013-2-6,52.0,36.5,22.0,34.0,26.8,19.0,98,70,42,30.25,30.04,9,3,12,0.00
2013-2-7,38.0,35.9,34.0,37.0,33.8,30.0,98,93,78,30.04,29.89,11,4,11,0.00
2013-2-8,34.0,28.8,26.0,33.0,23.4,20.0,96,80,72,30.37,30.01,15,6,15,0.00
2013-2-9,41.0,32.7,28.0,31.0,25.6,22.0,87,75,55,30.37,30.01,10,5,13,0.00
2013-2-10,49.0,42.8,36.0,48.0,39.5,28.0,98,90,51,30.01,29.50,17,8,19,0.00
2013-2-11,44.0,35.1,31.0,29.0,22.1,19.0,70,59,52,30.10,29.59,10,6,15,0.00
2013-2-12,46.0,31.7,23.0,25.0,21.9,19.0,89,69,40,30.13,29.92,7,2,8,0.00
2013-2-13,55.0,35.6,22.0,35.0,26.2,20.0,98,73,37,29.92,29.74,6,1,9,0.00
2013-2-14,42.0,37.9,32.0,33.0,29.0,24.0,88,71,56,30.01,29.71,7,3,13,0.00
2013-2-15,39.0,30.4,22.0,32.0,17.0,10.0,93,59,34,30.25,30.01,11,6,13,0.00
2013-2-16,34.0,22.8,14.0,12.0,8.5,3.0,69,55,40,30.25,30.13,12,6,12,0.00
2013-2-17,42.0,27.0,14.0,20.0,11.7,3.0,71,53,38,30.25,29.92,11,5,19,0.00
2013-2-18,63.0,41.2,24.0,48.0,31.7,16.0,98,71,43,29.92,29.47,11,6,19,0.00
2013-2-19,26.0,20.1,14.0,17.0,7.9,3.0,75,59,47,30.22,29.74,11,7,18,0.00
2013-2-20,27.0,17.1,14.0,8.0,4.3,0.0,63,57,42,30.40,30.22,12,6,12,0.00
2013-3-6,39.0,30.8,25.0,23.0,20.8,19.0,87,67,49,30.34,30.22,11,5,17,0.00
2013-3-7,62.0,35.0,23.0,29.0,22.3,18.0,91,64,29,30.43,30.31,6,2,8,0.00
2013-3-8,52.0,35.5,19.0,31.0,25.3,17.0,96,70,40,30.49,30.25,10,4,12,0.00
2013-3-9,49.0,41.7,36.0,40.0,34.6,29.0,92,76,59,30.25,29.80,10,5,13,0.00
2013-3-10,56.0,47.9,42.0,52.0,46.6,40.0,98,97,81,29.83,29.59,9,3,12,0.00
2013-3-11,47.0,37.6,32.0,46.0,35.3,26.0,98,93,79,29.89,29.62,8,4,11,0.00
2013-3-12,46.0,33.4,26.0,31.0,23.7,16.0,91,68,44,30.10,29.89,14,5,14,0.00
2013-3-13,40.0,29.5,22.0,22.0,17.5,13.0,87,63,38,30.37,30.10,11,5,22,0.00
2013-3-14,49.0,33.7,22.0,31.0,23.2,16.0,92,68,40,30.34,30.07,12,3,13,0.00
2013-3-15,59.0,42.3,27.0,43.0,34.1,25.0,98,76,40,30.07,29.68,6,2,8,0.00
2013-3-16,43.0,36.3,31.0,42.0,31.7,25.0,98,85,59,30.10,29.65,11,6,13,0.00
2013-3-17,38.0,33.2,29.0,28.0,23.9,19.0,81,69,55,30.16,29.92,11,6,11,0.00
2013-3-18,34.0,32.9,32.0,32.0,30.6,28.0,98,91,77,29.92,29.77,11,8,13,0.00
2013-3-31,47.0,43.5,40.0,31.0,27.9,26.0,61,54,43,29.95,29.89,10,7,11,0.00
2013-4-1,48.0,38.1,29.0,26.0,19.0,12.0,77,48,29,30.22,29.95,14,8,16,0.00
2013-4-2,53.0,37.7,22.0,22.0,17.1,13.0,77,47,26,30.37,30.22,10,4,12,0.00
2013-4-3,58.0,40.8,24.0,22.0,17.6,11.0,74,42,24,30.49,30.28,9,3,12,0.00
2013-4-4,69.0,46.0,23.0,31.0,21.5,13.0,85,42,22,30.28,30.01,7,2,9,0.00
2013-4-5,67.0,50.2,37.0,34.0,26.9,16.0,79,44,23,30.25,30.04,11,5,13,0.00
2013-4-6,75.0,56.6,40.0,49.0,31.1,18.0,77,39,22,30.10,29.65,17,6,23,0.00
2013-4-7,74.0,57.7,40.0,47.0,41.4,38.0,98,59,31,30.01,29.74,11,3,11,0.00
2013-4-8,80.0,63.9,53.0,58.0,52.0,37.0,98,69,33,29.92,29.62,11,4,11,0.00
2013-4-9,85.0,67.8,51.0,61.0,56.4,47.0,98,71,34,29.92,29.83,9,4,12,0.00
2013-4-10,51.0,45.5,40.0,48.0,44.1,39.0,98,96,86,29.92,29.77,14,7,15,0.00
2013-4-11,54.0,46.0,39.0,50.0,42.4,30.0,98,89,70,29.77,29.62,13,4,15,0.00
2013-4-12,46.0,40.8,38.0,38.0,31.9,29.0,87,71,57,29.92,29.62,7,4,10,0.00
2013-4-13,60.0,49.2,39.0,35.0,29.5,23.0,75,48,34,30.04,29.92,11,4,14,0.00
2013-4-14,80.0,61.2,44.0,50.0,41.2,31.0,78,51,29,29.95,29.62,13,6,17,0.00
2013-4-15,71.0,56.3,46.0,58.0,50.2,40.0,98,82,52,30.01,29.65,9,3,15,0.00
2013-4-16,57.0,48.7,42.0,45.0,38.6,34.0,98,70,42,30.22,29.95,9,5,11,0.00
2013-4-17,55.0,48.4,45.0,54.0,43.0,34.0,98,83,65,30.22,29.77,12,7,17,0.00
2013-4-18,64.0,54.4,40.0,63.0,51.6,31.0,98,91,71,29.65,29.44,12,6,13,0.00
2013-4-19,41.0,38.8,37.0,33.0,28.2,25.0,82,66,56,30.01,29.62,13,6,13,0.00
2013-4-20,59.0,43.1,31.0,31.0,26.8,23.0,87,55,30,30.37,29.98,7,3,9,0.00
2013-4-21,62.0,48.5,36.0,37.0,31.3,26.0,73,53,36,30.49,30.28,15,7,17,0.00
2013-4-22,73.0,57.9,39.0,45.0,36.0,31.0,78,47,24,30.31,30.01,11,4,12,0.00
2013-4-23,59.0,47.0,39.0,53.0,45.0,38.0,98,94,60,30.04,29.92,11,5,13,0.00
2013-4-24,58.0,44.9,37.0,39.0,32.4,26.0,98,66,35,30.16,29.98,9,4,11,0.00
2013-4-25,61.0,48.3,40.0,35.0,28.9,23.0,78,50,26,30.31,30.10,12,4,15,0.00
2013-4-26,74.0,55.6,36.0,46.0,38.6,30.0,85,55,33,30.37,30.25,10,4,10,0.00
2013-4-27,69.0,55.6,41.0,53.0,45.8,38.0,98,74,36,30.31,29.98,9,3,11,0.00
2013-4-28,76.0,59.9,53.0,55.0,51.7,47.0,98,79,41,30.01,29.86,6,2,6,0.00
2013-4-29,78.0,64.5,48.0,58.0,53.0,47.0,98,70,43,29.95,29.77,11,5,14,0.00
2013-4-30,93.0,74.7,62.0,62.0,55.9,44.0,94,58,23,29.95,29.74,11,4,13,0.00
2013-5-1,90.0,74.4,57.0,61.0,52.4,44.0,94,53,22,30.16,29.95,9,3,15,0.00
2013-5-2,68.0,60.7,50.0,60.0,53.8,47.0,98,79,63,30.22,30.10,10,4,11,0.00
2013-5-3,62.0,52.1,44.0,61.0,51.1,43.0,98,98,97,30.13,29.83,11,5,13,0.00
2013-5-4,71.0,61.6,55.0,61.0,56.8,52.0,98,86,56,30.04,29.86,9,5,13,0.00
2013-5-5,78.0,62.8,53.0,58.0,51.6,41.0,98,72,29,30.04,29.92,10,4,11,0.00
2013-5-6,83.0,65.6,55.0,55.0,46.1,34.0,94,55,21,30.07,29.98,9,4,11,0.00
2013-5-7,85.0,65.8,46.0,52.0,42.3,35.0,93,50,20,30.13,29.98,6,2,6,0.00
2013-5-8,91.0,69.2,49.0,58.0,48.1,39.0,98,55,19,30.10,29.98,5,1,5,0.00
2013-5-9,77.0,64.0,60.0,64.0,60.0,52.0,98,88,43,29.98,29.83,10,2,10,0.00
2013-5-10,63.0,54.9,51.0,62.0,50.9,-99.9,98,92,81,29.98,29.80,9,4,9,0.00
2013-5-11,67.0,53.4,43.0,52.0,39.1,-99.9,98,65,27,30.10,29.95,14,4,15,0.00
2013-5-12,64.0,50.6,39.0,35.0,28.0,21.0,84,45,25,30.22,30.10,9,4,15,0.00
2013-5-13,76.0,56.6,33.0,52.0,34.7,29.0,98,53,21,30.25,30.01,6,2,7,0.00
2013-5-14,96.0,74.0,56.0,59.0,50.1,38.0,69,45,27,30.01,29.71,6,3,10,0.00
2013-5-15,90.0,75.5,60.0,64.0,55.1,47.0,89,51,23,29.92,29.74,7,2,11,0.00
2013-5-16,92.0,66.7,59.0,61.0,34.3,-99.9,90,57,19,30.01,29.86,6,2,6,0.00
2013-5-17,88.0,70.9,57.0,65.0,54.2,-99.9,98,67,35,30.04,29.95,8,3,10,0.00
2013-5-18,88.0,73.3,61.0,69.0,61.5,57.0,98,71,38,30.10,29.92,7,2,8,0.00
2013-5-19,93.0,77.8,60.0,72.0,64.9,59.0,98,68,38,29.95,29.74,13,4,17,0.00
2013-5-20,89.0,75.7,63.0,68.0,61.4,56.0,98,66,35,29.86,29.71,9,4,13,0.00
2013-5-21,88.0,73.3,62.0,66.0,61.9,58.0,98,72,40,29.80,29.68,9,3,10,0.00
2013-5-22,79.0,68.0,61.0,67.0,58.0,51.0,98,73,43,29.83,29.68,5,2,6,0.00
2013-5-23,65.0,58.6,46.0,59.0,53.0,45.0,98,83,60,30.25,29.83,11,4,13,0.00
2013-5-24,74.0,56.0,37.0,47.0,39.5,34.0,98,60,26,30.49,30.25,7,3,8,0.00
2013-5-25,56.0,50.9,47.0,52.0,44.0,32.0,98,78,50,30.40,30.25,9,4,10,0.00
2013-5-26,67.0,57.1,51.0,60.0,53.1,45.0,98,87,73,30.28,30.07,11,5,14,0.00
2013-5-27,76.0,65.2,58.0,68.0,62.4,57.0,98,92,68,30.07,29.83,11,4,18,0.00
2013-5-28,82.0,70.5,65.0,72.0,66.5,63.0,98,89,63,29.89,29.74,9,3,13,0.00
2013-5-29,92.0,76.2,62.0,73.0,66.5,61.0,98,75,45,29.98,29.83,8,4,13,0.00
2013-5-30,88.0,74.9,63.0,72.0,66.3,57.0,98,76,55,29.92,29.77,14,7,21,0.00
2013-5-31,80.0,70.0,63.0,75.0,66.5,62.0,98,90,69,29.89,29.74,8,3,11,0.00
2013-6-1,76.0,68.4,61.0,70.0,64.2,58.0,98,87,64,29.83,29.71,8,3,11,0.00
2013-6-2,65.0,61.2,55.0,62.0,55.3,49.0,98,81,65,30.04,29.80,7,3,13,0.00
2013-6-3,74.0,60.8,45.0,58.0,46.6,42.0,98,66,34,30.19,30.04,7,2,7,0.00
2013-6-4,81.0,65.4,49.0,53.0,48.8,45.0,98,60,31,30.19,30.04,7,3,10,0.00
2013-6-5,86.0,69.0,53.0,62.0,56.1,51.0,98,67,34,30.07,29.89,7,2,7,0.00
2013-6-6,81.0,65.6,58.0,62.0,55.9,51.0,94,72,45,29.95,29.86,6,3,6,0.00
2013-6-7,80.0,65.8,53.0,56.0,51.4,48.0,91,63,37,30.01,29.92,8,3,11,0.00
2013-6-8,87.0,68.3,48.0,57.0,49.7,44.0,98,57,29,30.04,29.95,5,2,7,0.00
2013-6-9,87.0,71.5,58.0,62.0,56.7,51.0,98,64,33,29.98,29.83,9,3,10,0.00
2013-6-11,76.0,72.6,70.0,71.0,70.1,69.0,98,92,80,29.89,29.83,2,0,2,0.00
2013-6-12,99.0,81.5,68.0,75.0,69.8,66.0,98,72,36,29.95,29.62,9,2,11,0.00
2013-6-13,87.0,76.2,62.0,72.0,59.3,51.0,96,60,32,30.04,29.71,12,6,13,0.00
2013-6-14,85.0,63.4,54.0,60.0,54.7,49.0,97,76,30,30.10,29.98,5,0,6,0.00
2013-6-15,79.0,68.4,63.0,71.0,62.2,55.0,98,81,64,30.07,29.92,8,1,15,0.00
2013-6-16,89.0,73.9,65.0,70.0,66.6,64.0,98,81,49,30.01,29.92,6,1,6,0.00
2013-6-17,94.0,76.9,61.0,70.0,62.7,56.0,98,69,29,30.04,29.92,0,0,4,0.00
2013-6-18,87.0,73.9,63.0,65.0,59.4,53.0,98,64,39,30.07,29.92,8,2,8,0.00
2013-6-19,92.0,70.7,53.0,59.0,52.4,47.0,91,57,27,30.16,30.07,5,0,6,0.00
2013-6-20,96.0,76.0,60.0,67.0,58.7,54.0,96,60,28,30.19,30.10,4,1,6,0.00
2013-6-22,91.0,79.3,69.0,75.0,69.7,64.0,85,73,57,30.13,29.98,9,4,12,0.00
2013-6-23,93.0,74.9,66.0,73.0,68.3,64.0,98,83,44,30.10,29.95,9,2,9,0.00
2013-6-24,93.0,72.4,66.0,76.0,68.4,65.0,98,90,54,30.16,29.92,12,2,12,0.00
2013-6-25,91.0,78.1,68.0,76.0,71.6,66.0,98,83,55,29.98,29.83,6,3,10,0.00
2013-6-26,92.0,75.9,67.0,75.0,71.3,66.0,98,88,50,29.89,29.77,6,2,9,0.00
2013-6-27,93.0,79.3,71.0,77.0,70.4,64.0,98,78,44,29.92,29.80,6,2,8,0.00
2013-6-28,88.0,76.6,65.0,69.0,62.5,55.0,98,66,35,29.86,29.71,9,4,13,0.00
2013-6-29,78.0,68.3,64.0,68.0,64.4,60.0,97,87,66,29.80,29.65,8,4,9,0.00
2013-6-30,84.0,70.6,61.0,63.0,58.8,51.0,96,69,42,30.01,29.80,10,5,11,0.00
2013-7-1,74.0,63.8,59.0,52.0,48.7,46.0,75,59,38,30.07,29.98,6,3,8,0.00
2013-7-2,82.0,66.9,58.0,57.0,52.7,49.0,85,62,32,30.10,30.04,7,4,11,0.00
2013-7-3,87.0,64.0,57.0,60.0,55.8,48.0,97,79,28,30.16,30.04,4,1,4,0.00
2013-7-4,92.0,71.2,58.0,65.0,58.7,57.0,98,73,31,30.16,30.04,6,2,6,0.00
2013-7-8,90.0,78.7,71.0,75.0,69.3,-99.9,98,79,57,30.10,30.01,5,2,8,0.00
2013-7-9,93.0,80.7,73.0,80.0,75.0,72.0,98,85,59,30.04,29.92,3,1,4,0.00
2013-7-10,93.0,79.4,68.0,77.0,65.8,-99.9,94,68,40,30.04,29.89,9,3,12,0.00
2013-7-11,88.0,71.8,59.0,69.0,57.6,52.0,98,68,30,30.16,30.04,7,2,8,0.00
2013-7-12,92.0,67.7,54.0,63.0,55.2,51.0,98,73,27,30.22,30.10,4,1,4,0.00
2013-7-13,91.0,73.1,58.0,66.0,58.5,54.0,98,67,30,30.22,30.10,7,2,8,0.00
2013-7-14,97.0,79.5,65.0,70.0,64.9,61.0,98,66,32,30.22,30.13,6,3,6,0.00
2013-7-15,94.0,78.2,69.0,79.0,71.3,68.0,98,81,47,30.31,30.19,6,2,6,0.00
2013-7-16,97.0,81.5,71.0,78.0,71.4,66.0,98,76,40,30.40,30.28,4,1,6,0.00
2013-7-17,101.0,79.7,69.0,79.0,71.7,68.0,98,82,36,30.40,30.22,3,0,3,0.00
2013-7-18,101.0,84.1,72.0,80.0,72.2,68.0,98,73,36,30.25,30.01,3,1,4,0.00
2013-7-19,100.0,87.1,76.0,75.0,71.2,65.0,91,64,35,30.04,29.86,6,2,9,0.00
2013-7-20,95.0,81.6,68.0,73.0,65.7,-99.9,98,64,32,29.98,29.86,7,2,8,0.00
2013-7-21,86.0,74.9,63.0,73.0,69.0,62.0,98,84,61,30.01,29.89,4,1,5,0.00
2013-7-22,98.0,78.9,67.0,74.0,69.0,64.0,98,77,38,29.92,29.80,11,1,11,0.00
2013-7-23,86.0,73.4,65.0,70.0,64.2,58.0,98,76,45,29.98,29.80,9,3,10,0.00
2013-7-24,84.0,69.1,54.0,61.0,54.0,49.0,98,65,31,30.13,29.98,8,3,9,0.00
2013-7-25,90.0,65.5,51.0,60.0,54.3,50.0,98,73,28,30.19,30.07,4,1,5,0.00
2013-7-26,75.0,67.0,60.0,69.0,63.0,58.0,98,87,68,30.07,29.95,5,1,5,0.00
2013-7-27,74.0,63.1,56.0,59.0,52.5,44.0,98,72,41,30.04,29.95,10,4,17,0.00
2013-7-28,79.0,63.8,52.0,55.0,49.7,47.0,95,64,33,30.10,29.95,10,3,12,0.00
2013-7-29,85.0,58.6,49.0,59.0,52.4,48.0,98,85,30,30.22,30.07,5,1,5,0.00
2013-7-30,69.0,66.4,62.0,68.0,63.3,56.0,98,91,68,30.19,30.07,6,3,10,0.00
2013-7-31,81.0,70.9,66.0,71.0,67.5,65.0,98,91,65,30.07,30.01,6,2,6,0.00
2013-8-1,88.0,71.9,60.0,68.0,61.5,56.0,98,77,36,30.10,29.98,7,1,10,0.00
2013-8-2,92.0,74.0,63.0,71.0,65.1,61.0,98,76,43,29.98,29.92,5,2,6,0.00
2013-8-3,88.0,73.1,61.0,70.0,61.3,51.0,98,73,34,30.16,29.98,8,2,8,0.00
2013-8-4,89.0,68.6,55.0,64.0,56.6,50.0,98,74,27,30.28,30.13,4,1,8,0.00
2013-8-5,80.0,68.4,58.0,68.0,61.5,56.0,98,81,47,30.13,29.92,9,2,9,0.00
2013-8-6,93.0,75.3,66.0,73.0,69.3,65.0,98,84,46,29.98,29.86,6,2,6,0.00
2013-8-7,92.0,78.5,71.0,76.0,70.4,64.0,98,78,46,29.98,29.86,6,2,10,0.00
2013-8-8,86.0,73.4,65.0,68.0,64.1,59.0,98,75,47,30.07,29.95,6,3,7,0.00
2013-8-9,89.0,70.9,58.0,67.0,61.4,57.0,98,76,38,30.10,30.01,3,0,3,0.00
2013-8-10,87.0,69.4,59.0,68.0,59.9,52.0,98,76,34,30.22,30.10,7,2,7,0.00
2013-8-11,92.0,67.2,55.0,66.0,58.2,54.0,98,80,32,30.19,30.07,4,0,4,0.00
2013-8-21,96.0,76.5,65.0,69.0,64.3,60.0,98,73,31,30.16,30.04,4,1,4,0.00
2013-8-22,81.0,73.2,68.0,72.0,68.7,64.0,98,87,63,30.16,30.07,9,2,12,0.00
2013-8-23,89.0,72.9,64.0,71.0,63.8,58.0,98,78,39,30.22,30.13,6,2,11,0.00
2013-8-24,93.0,72.6,58.0,68.0,57.9,-99.9,98,67,38,30.25,30.16,6,2,6,0.00
2013-8-25,96.0,73.3,63.0,69.0,64.1,61.0,98,77,33,30.28,30.19,4,1,5,0.00
2013-8-26,98.0,74.6,65.0,70.0,65.8,61.0,93,77,35,30.22,30.04,3,1,4,0.00
2013-8-27,98.0,78.0,74.0,72.0,70.2,66.0,89,80,36,30.10,30.01,3,2,4,0.00
2013-10-2,83.0,69.8,62.0,69.0,65.9,60.0,98,89,48,30.10,29.98,5,2,6,0.00
2013-10-3,86.0,70.2,64.0,71.0,66.6,63.0,98,91,53,29.98,29.86,7,3,7,0.00
2013-10-4,87.0,72.9,65.0,71.0,67.2,64.0,98,84,55,30.01,29.92,6,3,8,0.00
2013-10-5,79.0,71.2,59.0,71.0,65.9,57.0,98,84,61,29.95,29.83,5,3,6,0.00
2013-10-6,59.0,51.2,46.0,53.0,42.7,34.0,98,75,41,29.86,29.80,5,2,9,0.00
2013-10-7,57.0,49.7,45.0,51.0,46.8,43.0,98,90,71,30.10,29.83,4,2,6,0.00
2013-10-8,60.0,51.4,44.0,50.0,45.1,43.0,98,81,56,30.19,30.10,4,1,4,0.00
2013-10-9,56.0,49.3,45.0,50.0,45.5,44.0,98,87,69,30.25,30.13,4,1,4,0.00
2013-10-10,64.0,50.5,44.0,55.0,47.8,43.0,98,91,67,30.19,30.04,5,1,6,0.00
2013-10-18,58.0,47.4,41.0,45.0,38.2,33.0,98,73,39,30.01,29.86,6,2,7,0.00
2013-10-19,60.0,46.3,40.0,41.0,32.0,-99.9,93,65,31,29.98,29.86,5,2,6,0.00
2013-10-20,67.0,49.9,39.0,45.0,37.8,33.0,86,65,30,29.89,29.74,5,2,7,0.00
2013-10-21,56.0,45.6,30.0,45.0,31.8,17.0,81,61,26,30.04,29.86,8,3,11,0.00
2013-10-22,42.0,35.7,27.0,40.0,33.2,22.0,98,91,75,30.01,29.86,7,3,8,0.00
2013-10-23,49.0,39.5,34.0,37.0,29.4,23.0,98,70,39,30.07,29.95,6,3,6,0.00
2013-10-24,47.0,37.5,30.0,36.0,24.4,18.0,98,61,36,30.34,30.07,10,3,10,0.00
2013-10-25,59.0,44.0,25.0,30.0,23.3,21.0,95,48,25,30.43,30.13,7,3,7,0.00
2013-10-26,59.0,42.7,31.0,30.0,23.8,-99.9,85,51,28,30.13,29.95,9,4,11,0.00
2013-10-27,64.0,34.9,27.0,34.0,26.6,24.0,98,79,24,30.10,29.98,4,1,4,0.00
2013-10-28,68.0,39.5,29.0,39.0,28.9,-99.9,93,74,22,30.34,30.04,6,2,6,0.00
2013-10-29,58.0,45.9,34.0,52.0,39.8,33.0,98,82,45,30.31,30.13,6,2,9,0.00
2013-10-30,64.0,58.2,53.0,63.0,57.2,52.0,98,98,96,30.10,29.80,6,2,9,0.00